| time (UTC) | temp F | wind direction | speed knots | gust knots | rain 1hr in | rain 24hr in | rain mn in | humidity % | barometer mb |
| 20260504173542 | 0 | 0.0 | 0.0 | 0.00 | 0.00 | 0.00 | 1008.5 | ||
| 20260504173040 | 0 | 0.0 | 0.0 | 0.00 | 0.00 | 0.00 | 1008.3 | ||
| 20260504172536 | 0 | 0.0 | 0.0 | 0.00 | 0.00 | 0.00 | 1008.0 | ||
| 20260504172033 | 0 | 0.0 | 0.0 | 0.00 | 0.00 | 0.00 | 1008.3 | ||
| 20260504171530 | 0 | 0.0 | 0.0 | 0.00 | 0.00 | 0.00 | 1008.7 | ||
| 20260504171027 | 0 | 0.0 | 0.0 | 0.00 | 0.00 | 0.00 | 1008.7 | ||
| 20260504170522 | 0 | 0.0 | 0.0 | 0.00 | 0.00 | 0.00 | 1008.6 | ||
| 20260504160443 | 0 | 0.0 | 0.0 | 0.00 | 0.00 | 0.00 | 1009.6 | ||
| 20260504150906 | 0 | 0.0 | 0.0 | 0.00 | 0.00 | 0.00 | 1009.9 | ||
| 20260504150403 | 0 | 0.0 | 0.0 | 0.00 | 0.00 | 0.00 | 1010.0 | ||
| 20260504141333 | 0 | 0.0 | 0.0 | 0.00 | 0.00 | 0.00 | 1010.5 | ||
| 20260504140829 | 0 | 0.0 | 0.0 | 0.00 | 0.00 | 0.00 | 1010.6 | ||
| 20260504140325 | 0 | 0.0 | 0.0 | 0.00 | 0.00 | 0.00 | 1010.6 | ||
| 20260504130754 | 0 | 0.0 | 0.0 | 0.00 | 0.00 | 0.00 | 1010.7 | ||
| 20260504130250 | 0 | 0.0 | 0.0 | 0.00 | 0.00 | 0.00 | 1011.0 | ||
| 20260504120214 | 0 | 0.0 | 0.0 | 0.00 | 0.00 | 0.00 | 1011.7 | ||
| 20260504110641 | 0 | 0.0 | 0.0 | 0.00 | 0.00 | 0.00 | 1012.1 | ||
| 20260504110137 | 0 | 0.0 | 0.0 | 0.00 | 0.00 | 0.00 | 1011.9 | ||
| 20260504100557 | 0 | 0.0 | 0.0 | 0.00 | 0.00 | 0.00 | 1011.8 | ||
| 20260504081950 | 0 | 0.0 | 0.0 | 0.00 | 0.00 | 0.00 | 1011.9 | ||
| 20260504081448 | 0 | 0.0 | 0.0 | 0.00 | 0.00 | 0.00 | 1012.0 | ||
| 20260504080943 | 0 | 0.0 | 0.0 | 0.00 | 0.00 | 0.00 | 1011.9 | ||
| 20260504080440 | 0 | 0.0 | 0.0 | 0.00 | 0.00 | 0.00 | 1012.0 | ||
| 20260504070408 | 0 | 0.0 | 0.0 | 0.00 | 0.00 | 0.00 | 1011.9 | ||
| 20260504050750 | 36 | 314 | 1.7 | 1.7 | 0.00 | 0.00 | 0.00 | 81 | 1011.6 |
| 20260504050247 | 36 | 351 | 0.9 | 1.7 | 0.00 | 0.00 | 0.00 | 81 | 1011.5 |
| 20260504045744 | 36 | 12 | 0.0 | 0.0 | 0.00 | 0.00 | 0.00 | 81 | 1011.4 |
| 20260504045239 | 36 | 351 | 0.0 | 0.0 | 0.00 | 0.00 | 0.00 | 81 | 1011.5 |
| 20260504044737 | 36 | 12 | 0.0 | 0.0 | 0.00 | 0.00 | 0.00 | 81 | 1011.3 |
| 20260504044234 | 37 | 30 | 0.0 | 0.0 | 0.00 | 0.00 | 0.00 | 81 | 1011.5 |
| 20260504043731 | 37 | 2 | 0.9 | 0.9 | 0.00 | 0.00 | 0.00 | 80 | 1011.3 |
| 20260504043228 | 37 | 329 | 0.9 | 1.7 | 0.00 | 0.00 | 0.00 | 80 | 1011.2 |
| 20260504042726 | 37 | 347 | 0.9 | 0.9 | 0.00 | 0.00 | 0.00 | 80 | 1011.3 |
| 20260504042222 | 37 | 359 | 0.9 | 0.9 | 0.00 | 0.00 | 0.00 | 80 | 1011.2 |
| 20260504041718 | 37 | 352 | 0.9 | 0.9 | 0.00 | 0.00 | 0.00 | 80 | 1011.2 |
| 20260504041214 | 37 | 355 | 0.9 | 0.9 | 0.00 | 0.00 | 0.00 | 80 | 1011.3 |
| 20260504040711 | 37 | 262 | 0.9 | 0.9 | 0.00 | 0.00 | 0.00 | 80 | 1011.0 |
| 20260504040208 | 37 | 295 | 0.9 | 0.9 | 0.00 | 0.00 | 0.00 | 79 | 1011.0 |
| 20260504035704 | 37 | 2 | 0.9 | 0.9 | 0.00 | 0.00 | 0.00 | 79 | 1011.1 |
| 20260504035202 | 37 | 339 | 0.9 | 1.7 | 0.00 | 0.00 | 0.00 | 79 | 1011.1 |
| 20260504034659 | 38 | 8 | 0.9 | 0.9 | 0.00 | 0.00 | 0.00 | 79 | 1010.8 |
| 20260504034156 | 38 | 350 | 0.9 | 0.9 | 0.00 | 0.00 | 0.00 | 78 | 1010.8 |
| 20260504033654 | 38 | 290 | 0.9 | 1.7 | 0.00 | 0.00 | 0.00 | 78 | 1011.0 |
| 20260504033151 | 38 | 302 | 0.9 | 1.7 | 0.00 | 0.00 | 0.00 | 78 | 1010.7 |
| 20260504032647 | 38 | 275 | 1.7 | 1.7 | 0.00 | 0.00 | 0.00 | 78 | 1011.0 |
| 20260504032145 | 38 | 297 | 0.9 | 0.9 | 0.00 | 0.00 | 0.00 | 78 | 1011.2 |
| 20260504031642 | 38 | 299 | 0.9 | 0.9 | 0.00 | 0.00 | 0.00 | 77 | 1011.1 |
| 20260504031138 | 38 | 348 | 0.9 | 0.9 | 0.00 | 0.00 | 0.00 | 77 | 1011.1 |
| 20260504030635 | 39 | 289 | 1.7 | 1.7 | 0.00 | 0.00 | 0.00 | 77 | 1011.1 |
| 20260504030131 | 39 | 337 | 0.9 | 1.7 | 0.00 | 0.00 | 0.00 | 76 | 1011.2 |
| 20260504025628 | 39 | 333 | 0.9 | 0.9 | 0.00 | 0.00 | 0.00 | 76 | 1011.1 |
| 20260504025125 | 39 | 286 | 1.7 | 1.7 | 0.00 | 0.00 | 0.00 | 76 | 1011.1 |
| 20260504024622 | 39 | 334 | 0.9 | 1.7 | 0.00 | 0.00 | 0.00 | 75 | 1011.0 |
| 20260504024119 | 39 | 291 | 0.9 | 1.7 | 0.00 | 0.00 | 0.00 | 75 | 1011.2 |
| 20260504023616 | 40 | 294 | 0.9 | 0.9 | 0.00 | 0.00 | 0.00 | 74 | 1011.1 |
| 20260504023111 | 40 | 303 | 0.9 | 1.7 | 0.00 | 0.00 | 0.00 | 75 | 1011.1 |
| 20260504022608 | 40 | 288 | 0.9 | 1.7 | 0.00 | 0.00 | 0.00 | 74 | 1011.0 |
| 20260504022104 | 40 | 296 | 1.7 | 1.7 | 0.00 | 0.00 | 0.00 | 74 | 1011.0 |
| 20260504021602 | 41 | 284 | 1.7 | 1.7 | 0.00 | 0.00 | 0.00 | 74 | 1011.2 |
| 20260504021059 | 41 | 299 | 0.9 | 0.9 | 0.00 | 0.00 | 0.00 | 73 | 1011.2 |
| 20260504020555 | 41 | 273 | 0.9 | 1.7 | 0.00 | 0.00 | 0.00 | 73 | 1011.3 |
| 20260504020052 | 41 | 276 | 1.7 | 1.7 | 0.00 | 0.00 | 0.00 | 73 | 1011.0 |
| 20260504015548 | 41 | 279 | 1.7 | 1.7 | 0.00 | 0.00 | 0.00 | 72 | 1011.2 |
| 20260504015044 | 42 | 290 | 1.7 | 1.7 | 0.00 | 0.00 | 0.00 | 72 | 1011.0 |
| 20260504014541 | 42 | 297 | 1.7 | 1.7 | 0.00 | 0.00 | 0.00 | 71 | 1010.8 |
| 20260504014038 | 42 | 256 | 1.7 | 1.7 | 0.00 | 0.00 | 0.00 | 71 | 1010.7 |
| 20260504013535 | 42 | 281 | 0.9 | 1.7 | 0.00 | 0.00 | 0.00 | 70 | 1010.8 |
| 20260504013032 | 42 | 289 | 1.7 | 1.7 | 0.00 | 0.00 | 0.00 | 70 | 1010.8 |
| 20260504012529 | 43 | 299 | 0.9 | 0.9 | 0.00 | 0.00 | 0.00 | 70 | 1011.1 |
| 20260504012022 | 43 | 290 | 1.7 | 1.7 | 0.00 | 0.00 | 0.00 | 68 | 1010.7 |
| 20260504011518 | 43 | 261 | 1.7 | 1.7 | 0.00 | 0.00 | 0.00 | 68 | 1010.7 |
| 20260504011014 | 44 | 291 | 1.7 | 1.7 | 0.00 | 0.00 | 0.00 | 67 | 1010.7 |
| 20260504010510 | 44 | 282 | 1.7 | 1.7 | 0.00 | 0.00 | 0.00 | 67 | 1010.4 |
| 20260504010006 | 44 | 281 | 1.7 | 1.7 | 0.00 | 0.00 | 0.00 | 66 | 1010.4 |
| 20260504005503 | 45 | 296 | 1.7 | 1.7 | 0.00 | 0.00 | 0.00 | 65 | 1010.7 |
| 20260504005001 | 45 | 296 | 1.7 | 1.7 | 0.00 | 0.00 | 0.00 | 64 | 1010.5 |
| 20260504004458 | 46 | 304 | 1.7 | 1.7 | 0.00 | 0.00 | 0.00 | 62 | 1010.5 |
| 20260504003955 | 46 | 292 | 0.9 | 0.9 | 0.00 | 0.00 | 0.00 | 62 | 1010.3 |
| 20260504003451 | 46 | 293 | 1.7 | 1.7 | 0.00 | 0.00 | 0.00 | 62 | 1010.2 |
| 20260504002948 | 47 | 300 | 1.7 | 1.7 | 0.00 | 0.00 | 0.00 | 60 | 1010.2 |
| 20260504002445 | 47 | 2 | 0.0 | 0.0 | 0.00 | 0.00 | 0.00 | 60 | 1010.1 |
| 20260504001942 | 48 | 342 | 0.9 | 0.9 | 0.00 | 0.00 | 0.00 | 59 | 1010.2 |
| 20260504001440 | 48 | 338 | 0.9 | 0.9 | 0.00 | 0.00 | 0.00 | 57 | 1010.0 |
| 20260504000936 | 49 | 302 | 0.9 | 0.9 | 0.00 | 0.00 | 0.00 | 58 | 1009.9 |
| 20260504000433 | 50 | 327 | 0.9 | 0.9 | 0.00 | 0.00 | 0.00 | 56 | 1009.9 |
| 20260503235930 | 50 | 353 | 0.9 | 0.9 | 0.00 | 0.00 | 0.00 | 55 | 1009.9 |
| 20260503235428 | 51 | 2 | 0.0 | 0.0 | 0.00 | 0.00 | 0.00 | 55 | 1009.7 |
| 20260503234925 | 51 | 16 | 0.0 | 0.9 | 0.00 | 0.00 | 0.00 | 50 | 1009.7 |
| 20260503234423 | 52 | 67 | 0.0 | 0.0 | 0.00 | 0.00 | 0.00 | 50 | 1009.7 |
| 20260503233921 | 53 | 81 | 0.0 | 0.0 | 0.00 | 0.00 | 0.00 | 48 | 1009.6 |
| 20260503233417 | 54 | 48 | 0.0 | 0.0 | 0.00 | 0.00 | 0.00 | 42 | 1009.7 |
| 20260503232913 | 54 | 345 | 3.5 | 4.3 | 0.00 | 0.00 | 0.00 | 40 | 1009.9 |
| 20260503232411 | 55 | 304 | 2.6 | 4.3 | 0.00 | 0.00 | 0.00 | 40 | 1009.6 |
| 20260503231908 | 55 | 18 | 2.6 | 2.6 | 0.00 | 0.00 | 0.00 | 38 | 1009.5 |
| 20260503231405 | 55 | 236 | 1.7 | 4.3 | 0.00 | 0.00 | 0.00 | 39 | 1009.7 |
| 20260503230901 | 56 | 302 | 5.2 | 7.0 | 0.00 | 0.00 | 0.00 | 38 | 1009.6 |
| 20260503230358 | 56 | 289 | 1.7 | 2.6 | 0.00 | 0.00 | 0.00 | 38 | 1009.5 |
| 20260503225856 | 57 | 333 | 1.7 | 1.7 | 0.00 | 0.00 | 0.00 | 37 | 1009.3 |
| 20260503225352 | 57 | 281 | 6.1 | 7.0 | 0.00 | 0.00 | 0.00 | 37 | 1009.2 |
| 20260503224848 | 56 | 198 | 2.6 | 4.3 | 0.00 | 0.00 | 0.00 | 35 | 1009.6 |
| 20260503224345 | 56 | 282 | 2.6 | 2.6 | 0.00 | 0.00 | 0.00 | 36 | 1009.5 |
| 20260503223843 | 57 | 281 | 5.2 | 8.7 | 0.00 | 0.00 | 0.00 | 36 | 1009.5 |
| 20260503223341 | 57 | 296 | 6.1 | 7.0 | 0.00 | 0.00 | 0.00 | 35 | 1009.4 |
| 20260503222836 | 57 | 353 | 0.9 | 0.9 | 0.00 | 0.00 | 0.00 | 35 | 1009.4 |
| 20260503222335 | 57 | 249 | 1.7 | 1.7 | 0.00 | 0.00 | 0.00 | 35 | 1009.5 |
| 20260503221832 | 57 | 291 | 7.8 | 12.2 | 0.00 | 0.00 | 0.00 | 35 | 1009.4 |
| 20260503221331 | 56 | 316 | 7.0 | 7.8 | 0.00 | 0.00 | 0.00 | 34 | 1009.4 |
| 20260503220826 | 57 | 330 | 8.7 | 11.3 | 0.00 | 0.00 | 0.00 | 34 | 1009.5 |
| 20260503220324 | 56 | 282 | 0.9 | 1.7 | 0.00 | 0.00 | 0.00 | 34 | 1009.4 |
| 20260503215820 | 56 | 239 | 3.5 | 5.2 | 0.00 | 0.00 | 0.00 | 34 | 1009.2 |
| 20260503215318 | 57 | 259 | 6.1 | 7.0 | 0.00 | 0.00 | 0.00 | 33 | 1009.0 |
| 20260503214815 | 57 | 230 | 3.5 | 4.3 | 0.00 | 0.00 | 0.00 | 36 | 1009.3 |
| 20260503214312 | 57 | 273 | 1.7 | 2.6 | 0.00 | 0.00 | 0.00 | 34 | 1008.9 |
| 20260503213810 | 57 | 312 | 0.9 | 1.7 | 0.00 | 0.00 | 0.00 | 37 | 1009.2 |
| 20260503213307 | 57 | 97 | 1.7 | 1.7 | 0.00 | 0.00 | 0.00 | 32 | 1008.9 |
| 20260503212758 | 57 | 318 | 5.2 | 6.1 | 0.00 | 0.00 | 0.00 | 32 | 1009.0 |
| 20260503212256 | 56 | 193 | 1.7 | 1.7 | 0.00 | 0.00 | 0.00 | 32 | 1009.1 |
| 20260503211753 | 56 | 276 | 2.6 | 4.3 | 0.00 | 0.00 | 0.00 | 34 | 1009.1 |
| 20260503211250 | 57 | 290 | 7.0 | 8.7 | 0.00 | 0.00 | 0.00 | 31 | 1008.7 |
| 20260503210744 | 58 | 287 | 10.4 | 11.3 | 0.00 | 0.00 | 0.00 | 29 | 1008.7 |
| 20260503210242 | 58 | 223 | 7.8 | 9.6 | 0.00 | 0.00 | 0.00 | 32 | 1008.6 |
| 20260503205743 | 59 | 255 | 4.3 | 6.1 | 0.00 | 0.00 | 0.00 | 31 | 1009.0 |
| 20260503205239 | 58 | 310 | 3.5 | 5.2 | 0.00 | 0.00 | 0.00 | 30 | 1008.9 |
| 20260503204736 | 58 | 222 | 4.3 | 6.1 | 0.00 | 0.00 | 0.00 | 30 | 1008.8 |
| 20260503204233 | 57 | 31 | 1.7 | 2.6 | 0.00 | 0.00 | 0.00 | 30 | 1009.1 |
| 20260503203731 | 56 | 43 | 3.5 | 5.2 | 0.00 | 0.00 | 0.00 | 34 | 1008.9 |
| 20260503203228 | 56 | 193 | 1.7 | 1.7 | 0.00 | 0.00 | 0.00 | 32 | 1009.0 |
| 20260503202725 | 57 | 257 | 7.0 | 7.8 | 0.00 | 0.00 | 0.00 | 33 | 1009.1 |
| 20260503202223 | 58 | 235 | 9.6 | 11.3 | 0.00 | 0.00 | 0.00 | 30 | 1009.1 |
| 20260503201721 | 56 | 317 | 5.2 | 6.1 | 0.00 | 0.00 | 0.00 | 29 | 1008.9 |
| 20260503201218 | 56 | 243 | 9.6 | 12.2 | 0.00 | 0.00 | 0.00 | 30 | 1009.4 |
| 20260503200714 | 57 | 276 | 14.8 | 20.0 | 0.00 | 0.00 | 0.00 | 29 | 1009.0 |
| 20260503200211 | 56 | 300 | 7.0 | 7.8 | 0.00 | 0.00 | 0.00 | 31 | 1009.1 |
| 20260503195707 | 57 | 122 | 1.7 | 4.3 | 0.00 | 0.00 | 0.00 | 29 | 1009.1 |
| 20260503195205 | 57 | 229 | 4.3 | 5.2 | 0.00 | 0.00 | 0.00 | 29 | 1009.3 |
| 20260503194701 | 56 | 284 | 7.0 | 7.8 | 0.00 | 0.00 | 0.00 | 33 | 1009.5 |
| 20260503194157 | 56 | 205 | 0.9 | 0.9 | 0.00 | 0.00 | 0.00 | 30 | 1009.5 |
| 20260503193654 | 56 | 35 | 4.3 | 6.1 | 0.00 | 0.00 | 0.00 | 29 | 1009.9 |
| 20260503193149 | 56 | 279 | 4.3 | 7.8 | 0.00 | 0.00 | 0.00 | 32 | 1009.8 |
| 20260503192645 | 55 | 313 | 3.5 | 5.2 | 0.00 | 0.00 | 0.00 | 35 | 1009.4 |
| 20260503192141 | 55 | 295 | 13.0 | 19.1 | 0.00 | 0.00 | 0.00 | 31 | 1009.3 |
| 20260503191638 | 54 | 33 | 7.8 | 8.7 | 0.00 | 0.00 | 0.00 | 33 | 1009.6 |
| 20260503191135 | 54 | 191 | 4.3 | 6.1 | 0.00 | 0.00 | 0.00 | 32 | 1009.7 |
| 20260503190632 | 55 | 264 | 4.3 | 7.0 | 0.00 | 0.00 | 0.00 | 31 | 1009.9 |
| 20260503190129 | 54 | 162 | 2.6 | 4.3 | 0.00 | 0.00 | 0.00 | 35 | 1009.8 |
| 20260503185625 | 54 | 317 | 2.6 | 4.3 | 0.00 | 0.00 | 0.00 | 32 | 1010.1 |
| 20260503185120 | 54 | 220 | 5.2 | 5.2 | 0.00 | 0.00 | 0.00 | 33 | 1010.2 |
| 20260503184610 | 54 | 267 | 13.9 | 18.2 | 0.00 | 0.00 | 0.00 | 32 | 1010.0 |
| 20260503184107 | 54 | 290 | 10.4 | 13.0 | 0.00 | 0.00 | 0.00 | 32 | 1009.7 |
| 20260503183603 | 54 | 244 | 8.7 | 13.0 | 0.00 | 0.00 | 0.00 | 31 | 1010.1 |
| 20260503183101 | 53 | 322 | 3.5 | 6.1 | 0.00 | 0.00 | 0.00 | 33 | 1010.1 |
| 20260503182559 | 54 | 270 | 7.0 | 7.8 | 0.00 | 0.00 | 0.00 | 33 | 1010.3 |
| 20260503182057 | 53 | 287 | 6.1 | 7.0 | 0.00 | 0.00 | 0.00 | 32 | 1010.2 |
| 20260503181554 | 54 | 294 | 7.8 | 12.2 | 0.00 | 0.00 | 0.00 | 32 | 1010.4 |
| 20260503181050 | 53 | 177 | 2.6 | 4.3 | 0.00 | 0.00 | 0.00 | 32 | 1010.4 |
| 20260503180547 | 53 | 36 | 5.2 | 8.7 | 0.00 | 0.00 | 0.00 | 34 | 1010.3 |
| 20260503180045 | 52 | 268 | 4.3 | 5.2 | 0.00 | 0.00 | 0.00 | 34 | 1010.5 |
| 20260503175541 | 53 | 3 | 3.5 | 4.3 | 0.00 | 0.00 | 0.00 | 33 | 1010.4 |
| 20260503175039 | 53 | 318 | 2.6 | 4.3 | 0.00 | 0.00 | 0.00 | 34 | 1010.4 |
| 20260503174536 | 53 | 296 | 5.2 | 7.0 | 0.00 | 0.00 | 0.00 | 36 | 1010.5 |
| 20260503174032 | 52 | 84 | 4.3 | 5.2 | 0.00 | 0.00 | 0.00 | 35 | 1010.4 |